FW8830 Weather Reports


Display with metric or nautical units.
time (UTC)temp
F
wind
direction
speed
MPH
gust
MPH
rain 1hr
in
rain 24hr
in
rain mn
in
humidity
%
barometer
mb
20260509224005 60 150 2.0 3.0 0.00 0.36 0.31 85 1007.1
20260509223504 60 146 2.0 3.0 0.00 0.36 0.31 86 1007.1
20260509222504 60 135 2.0 7.0 0.00 0.36 0.31 86 1007.1
20260509222004 60 133 2.0 3.0 0.00 0.36 0.31 86 1007.1
20260509221506 60 82 2.0 3.0 0.00 0.37 0.31 86 1007.1
20260509220004 60 77 2.0 3.0 0.00 0.37 0.31 86 1007.4
20260509215504 60 132 1.0 6.0 0.00 0.37 0.31 86 1007.4
20260509215004 60 87 3.0 6.0 0.00 0.37 0.31 85 1007.4
20260509214504 60 69 3.0 3.0 0.00 0.37 0.31 86 1007.4
20260509214004 60 69 3.0 5.0 0.00 0.37 0.31 85 1007.3
20260509213504 61 78 2.0 7.0 0.00 0.37 0.31 85 1007.4
20260509212504 61 103 1.0 3.0 0.00 0.37 0.31 88 1007.6
20260509212004 60 60 2.0 3.0 0.00 0.37 0.31 85 1007.7
20260509211504 60 285 0.0 3.0 0.00 0.37 0.31 86 1007.7
20260509211004 60 258 1.0 2.0 0.00 0.37 0.31 89 1007.7
20260509210504 60 39 1.0 2.0 0.00 0.37 0.31 90 1007.6
20260509210004 59 30 0.0 2.0 0.00 0.37 0.31 91 1007.7
20260509205503 59 30 1.0 2.0 0.00 0.37 0.31 91 1007.7
20260509205004 58 188 0.0 1.0 0.00 0.37 0.31 92 1007.7
20260509204504 58 222 1.0 2.0 0.00 0.37 0.31 93 1007.8
20260509204004 57 35 0.0 2.0 0.00 0.37 0.31 94 1007.8
20260509203504 57 138 1.0 2.0 0.00 0.37 0.31 94 1007.9
20260509203004 56 196 1.0 2.0 0.00 0.37 0.31 93 1007.9
20260509202504 56 196 0.0 1.0 0.00 0.37 0.31 93 1007.9
20260509201004 56 196 0.0 0.0 0.00 0.37 0.31 95 1008.1
20260509200004 56 196 0.0 1.0 0.00 0.38 0.31 95 1008.3
20260509195504 56 196 1.0 1.0 0.00 0.38 0.31 95 1008.4
20260509195004 56 196 0.0 1.0 0.00 0.38 0.31 95 1008.4
20260509194504 56 196 0.0 1.0 0.01 0.38 0.31 95 1008.5
20260509194004 56 196 0.0 0.0 0.01 0.38 0.31 94 1008.6
20260509193504 55 196 0.0 0.0 0.01 0.38 0.31 94 1008.6
20260509193004 55 196 0.0 0.0 0.01 0.39 0.31 94 1008.6
20260509192504 55 196 0.0 1.0 0.01 0.39 0.31 94 1008.6
20260509191504 55 196 1.0 2.0 0.02 0.39 0.31 95 1008.6
20260509191003 55 196 2.0 3.0 0.02 0.39 0.31 94 1008.6
20260509190504 55 162 1.0 3.0 0.02 0.39 0.31 95 1008.6
20260509190004 54 232 1.0 3.0 0.02 0.39 0.31 95 1008.6
20260509185005 54 220 1.0 3.0 0.03 0.39 0.31 95 1008.7
20260509184503 54 220 2.0 3.0 0.02 0.38 0.30 96 1008.7
20260509184004 54 196 0.0 0.0 0.02 0.38 0.30 96 1008.7
20260509183004 54 196 1.0 3.0 0.03 0.38 0.30 95 1008.7
20260509182003 54 242 1.0 2.0 0.02 0.39 0.29 96 1008.8
20260509181504 54 242 1.0 2.0 0.03 0.39 0.29 96 1008.8
20260509181004 54 242 1.0 2.0 0.03 0.39 0.29 96 1008.8
20260509180504 54 327 0.0 2.0 0.04 0.39 0.29 96 1008.8
20260509180004 54 321 1.0 3.0 0.04 0.39 0.29 96 1008.8
20260509175504 54 338 1.0 2.0 0.04 0.38 0.28 96 1008.8
20260509175004 54 341 1.0 3.0 0.05 0.38 0.28 96 1008.8
20260509174504 53 355 0.0 3.0 0.05 0.38 0.28 96 1008.7
20260509174003 53 42 2.0 3.0 0.06 0.38 0.28 96 1008.7
20260509173504 53 40 1.0 2.0 0.07 0.38 0.28 96 1008.8
20260509173003 53 49 2.0 3.0 0.06 0.37 0.27 96 1008.8
20260509172504 53 63 3.0 3.0 0.07 0.37 0.27 96 1008.8
20260509172004 53 67 2.0 3.0 0.07 0.37 0.27 96 1008.8
20260509171504 53 41 2.0 3.0 0.06 0.36 0.26 96 1008.8
20260509171004 53 31 3.0 5.0 0.07 0.36 0.26 96 1008.8
20260509170004 53 92 2.0 3.0 0.06 0.35 0.25 96 1008.8
20260509164504 53 38 2.0 3.0 0.04 0.33 0.23 96 1008.8
20260509164004 53 74 0.0 2.0 0.03 0.32 0.22 96 1008.9
20260509163504 53 70 2.0 3.0 0.02 0.31 0.21 96 1008.8
20260509163004 53 78 2.0 3.0 0.03 0.31 0.21 96 1008.8
20260509162504 53 72 1.0 3.0 0.03 0.31 0.21 96 1009.0
20260509162004 53 51 1.0 2.0 0.02 0.30 0.20 96 1008.9
20260509161503 53 81 3.0 3.0 0.02 0.30 0.20 96 1009.0
20260509161004 53 75 1.0 3.0 0.01 0.29 0.19 96 1009.1
20260509160504 53 137 2.0 3.0 0.02 0.29 0.19 96 1009.1
20260509160004 53 88 2.0 3.0 0.02 0.29 0.19 96 1009.1
20260509155503 53 117 1.0 3.0 0.03 0.29 0.19 96 1009.2
20260509155003 52 95 2.0 6.0 0.03 0.29 0.19 96 1009.1
20260509154504 52 94 2.0 6.0 0.04 0.29 0.19 96 1009.2
20260509154003 52 108 1.0 6.0 0.04 0.29 0.19 96 1009.3
20260509153504 52 71 3.0 5.0 0.04 0.29 0.19 96 1009.4
20260509153004 52 131 2.0 6.0 0.04 0.28 0.18 96 1009.4
20260509152504 52 93 3.0 6.0 0.04 0.28 0.18 96 1009.4
20260509151504 52 120 2.0 3.0 0.05 0.28 0.18 96 1009.5
20260509151004 52 119 1.0 3.0 0.05 0.28 0.18 96 1009.5
20260509150504 52 81 3.0 5.0 0.05 0.27 0.17 96 1009.5
20260509150004 51 59 2.0 3.0 0.05 0.27 0.17 96 1009.5
20260509145505 51 89 2.0 6.0 0.06 0.27 0.17 96 1009.5
20260509145005 51 80 1.0 3.0 0.05 0.26 0.16 96 1009.6
20260509144004 51 86 2.0 3.0 0.05 0.25 0.15 96 1009.6
20260509143504 51 106 3.0 6.0 0.05 0.25 0.15 96 1009.6
20260509143004 51 80 2.0 3.0 0.04 0.24 0.14 96 1009.8
20260509141505 51 72 3.0 6.0 0.04 0.23 0.13 96 1009.7
20260509141005 51 140 1.0 3.0 0.04 0.23 0.13 96 1009.6
20260509140504 51 58 2.0 3.0 0.03 0.22 0.12 96 1009.7
20260509140005 51 85 2.0 3.0 0.03 0.22 0.12 96 1009.7
20260509135004 51 75 2.0 5.0 0.03 0.21 0.11 97 1009.8
20260509134504 51 85 0.0 5.0 0.03 0.21 0.11 97 1009.8
20260509133504 51 65 2.0 3.0 0.02 0.20 0.10 96 1009.8
20260509133004 51 66 1.0 3.0 0.02 0.20 0.10 97 1009.8
20260509132504 51 50 2.0 3.0 0.02 0.20 0.10 96 1009.9
20260509131504 51 93 1.0 3.0 0.02 0.19 0.09 97 1010.0
20260509130504 51 80 0.0 3.0 0.02 0.19 0.09 97 1010.0
20260509130004 51 115 0.0 0.0 0.02 0.19 0.09 96 1010.0
20260509125504 51 115 0.0 0.0 0.02 0.19 0.09 96 1010.0
20260509124504 51 115 0.0 0.0 0.01 0.18 0.08 97 1010.1
20260509124004 51 115 0.0 0.0 0.01 0.18 0.08 97 1010.2
20260509123504 51 115 0.0 0.0 0.01 0.18 0.08 97 1010.1
20260509123004 51 115 0.0 0.0 0.01 0.18 0.08 96 1010.1
20260509122504 51 115 0.0 0.0 0.01 0.18 0.08 96 1010.1
20260509122004 50 115 0.0 0.0 0.01 0.18 0.08 96 1010.1
20260509121504 50 115 0.0 0.0 0.01 0.18 0.08 97 1010.0
20260509121004 50 115 0.0 1.0 0.00 0.17 0.07 97 1010.0
20260509120504 50 115 0.0 1.0 0.00 0.17 0.07 96 1010.1
20260509120004 50 115 0.0 0.0 0.00 0.17 0.07 97 1010.1
20260509115004 50 115 0.0 0.0 0.01 0.17 0.07 97 1010.0
20260509114504 50 115 0.0 0.0 0.01 0.17 0.07 96 1010.1
20260509114005 50 63 0.0 1.0 0.01 0.17 0.07 97 1010.1
20260509113504 50 55 0.0 0.0 0.01 0.17 0.07 96 1010.1
20260509113004 50 55 0.0 0.0 0.01 0.17 0.07 96 1010.1
20260509112504 50 55 0.0 0.0 0.01 0.17 0.07 96 1010.1
20260509111504 50 55 1.0 2.0 0.01 0.17 0.07 96 1010.0
20260509111005 50 55 0.0 0.0 0.01 0.17 0.07 96 1010.1
20260509110505 50 55 1.0 2.0 0.01 0.17 0.07 96 1010.1
20260509110004 50 55 0.0 1.0 0.01 0.17 0.07 96 1010.2
20260509105004 50 63 0.0 3.0 0.00 0.16 0.06 96 1010.3
20260509103504 49 78 0.0 0.0 0.00 0.16 0.06 96 1010.1
20260509103004 50 78 0.0 0.0 0.00 0.16 0.06 96 1010.0
20260509102004 50 78 1.0 2.0 0.00 0.16 0.06 96 1009.9
20260509101504 50 81 1.0 3.0 0.00 0.16 0.06 96 1009.9
20260509101004 50 38 0.0 2.0 0.00 0.16 0.06 96 1009.9
20260509095504 50 84 1.0 2.0 0.00 0.16 0.06 96 1010.0
20260509095004 50 84 0.0 1.0 0.00 0.16 0.06 96 1010.0
20260509094504 50 84 0.0 1.0 0.00 0.16 0.06 96 1010.2
20260509094004 50 79 0.0 1.0 0.01 0.16 0.06 96 1010.2
20260509093504 50 43 0.0 2.0 0.01 0.16 0.06 96 1010.3
20260509092504 50 43 0.0 3.0 0.01 0.16 0.06 96 1010.4
20260509092004 50 42 2.0 5.0 0.01 0.16 0.06 96 1010.5
20260509091504 50 69 1.0 3.0 0.01 0.16 0.06 96 1010.5
20260509091004 50 77 3.0 6.0 0.01 0.16 0.06 96 1010.4
20260509085503 50 84 2.0 5.0 0.01 0.16 0.06 96 1010.3
20260509085004 50 76 2.0 5.0 0.01 0.16 0.06 96 1010.2
20260509084504 50 80 1.0 3.0 0.01 0.16 0.06 96 1010.4
20260509084004 50 63 1.0 2.0 0.00 0.15 0.05 96 1010.5
20260509083504 50 63 0.0 0.0 0.00 0.15 0.05 96 1010.5
20260509083004 50 63 1.0 2.0 0.00 0.15 0.05 96 1010.4
20260509082504 50 63 1.0 2.0 0.00 0.15 0.05 96 1010.3
20260509082003 50 63 0.0 3.0 0.00 0.15 0.05 96 1010.3
20260509081503 50 63 1.0 3.0 0.00 0.15 0.05 96 1010.3
20260509081004 50 63 1.0 2.0 0.01 0.15 0.05 96 1010.3
20260509080004 50 63 0.0 0.0 0.01 0.15 0.05 96 1010.4
20260509075003 50 63 0.0 0.0 0.02 0.15 0.05 96 1010.6
20260509074503 50 63 0.0 3.0 0.02 0.15 0.05 96 1010.5
20260509073004 50 63 0.0 2.0 0.02 0.15 0.05 96 1010.6
20260509072504 50 63 0.0 2.0 0.03 0.15 0.05 96 1010.8
20260509071504 50 58 0.0 1.0 0.03 0.15 0.05 96 1011.0
20260509070504 50 58 0.0 0.0 0.03 0.14 0.04 96 1011.1
20260509070003 50 58 0.0 0.0 0.03 0.14 0.04 96 1011.4
20260509065504 50 58 0.0 0.0 0.03 0.14 0.04 96 1011.1
20260509064504 51 58 0.0 0.0 0.02 0.13 0.03 96 1011.4
20260509064004 51 58 0.0 0.0 0.02 0.13 0.03 96 1011.5
20260509063504 51 58 0.0 0.0 0.02 0.13 0.03 96 1011.5
20260509063004 51 58 0.0 0.0 0.02 0.13 0.03 96 1011.4
20260509062004 51 58 0.0 0.0 0.01 0.12 0.02 96 1011.7
20260509061505 51 58 0.0 0.0 0.01 0.12 0.02 96 1011.8
20260509060505 51 58 0.0 0.0 0.01 0.11 0.01 96 1011.8
20260509060004 51 58 0.0 0.0 0.01 0.11 0.01 96 1011.8
20260509055504 51 58 0.0 0.0 0.01 0.11 0.01 96 1011.8
20260509055004 50 58 0.0 0.0 0.01 0.11 0.01 96 1011.8
20260509054504 50 58 0.0 0.0 0.01 0.11 0.01 96 1011.9
20260509054004 50 58 0.0 0.0 0.01 0.11 0.01 96 1011.7
20260509053504 50 58 0.0 0.0 0.01 0.11 0.01 96 1011.8
20260509053004 50 58 0.0 0.0 0.01 0.11 0.01 96 1011.8
20260509052504 50 58 0.0 0.0 0.01 0.11 0.01 96 1011.8
20260509052004 50 58 0.0 0.0 0.01 0.11 0.01 96 1011.8
20260509051004 50 58 0.0 0.0 0.01 0.11 0.01 95 1011.9
20260509050504 50 58 0.0 0.0 0.00 0.10 0.00 95 1012.0
20260509050004 50 58 0.0 0.0 0.00 0.10 0.00 95 1012.0
20260509045504 50 58 0.0 0.0 0.01 0.10 0.00 95 1012.0
20260509045004 50 58 0.0 0.0 0.01 0.10 0.00 95 1012.0
20260509044004 50 58 0.0 0.0 0.01 0.10 0.00 95 1011.9
20260509043504 50 58 0.0 0.0 0.01 0.10 0.00 95 1011.8
20260509042504 50 58 0.0 0.0 0.01 0.10 0.00 95 1011.7
20260509042004 50 58 0.0 0.0 0.01 0.10 0.00 95 1011.8
20260509041504 50 58 0.0 0.0 0.01 0.10 0.00 95 1011.6
20260509041004 50 58 0.0 0.0 0.01 0.10 0.00 95 1011.6
20260509040504 50 58 0.0 0.0 0.01 0.10 0.00 95 1011.7
20260509040004 50 58 0.0 0.0 0.01 0.10 0.00 95 1011.6
20260509035504 50 58 0.0 0.0 0.01 0.10 0.10 94 1011.8
20260509034504 51 58 0.0 0.0 0.00 0.09 0.09 95 1012.1
20260509034004 50 58 0.0 0.0 0.01 0.09 0.09 94 1012.0
20260509033504 50 58 0.0 0.0 0.01 0.09 0.09 94 1012.1
20260509033004 50 58 0.0 0.0 0.01 0.09 0.09 94 1012.1
20260509032504 50 58 0.0 0.0 0.01 0.09 0.09 94 1012.1
20260509032004 50 58 0.0 0.0 0.02 0.09 0.09 94 1012.1
20260509031504 50 58 0.0 0.0 0.02 0.09 0.09 94 1012.1
20260509031004 50 58 0.0 0.0 0.02 0.09 0.09 94 1012.3
20260509030504 50 58 0.0 0.0 0.02 0.09 0.09 94 1012.3
20260509030005 50 58 0.0 0.0 0.02 0.11 0.09 94 1012.2
20260509025004 51 58 0.0 0.0 0.02 0.12 0.09 94 1012.1
20260509024503 51 58 0.0 0.0 0.02 0.12 0.09 94 1012.2
20260509024004 51 58 0.0 0.0 0.01 0.11 0.08 94 1012.1
20260509023504 51 58 0.0 0.0 0.01 0.11 0.08 94 1012.0
20260509023004 50 58 0.0 0.0 0.01 0.11 0.08 94 1012.1
20260509022504 50 58 0.0 0.0 0.01 0.12 0.08 94 1012.0
20260509022004 50 58 0.0 0.0 0.01 0.12 0.08 93 1012.1
20260509021504 50 58 0.0 0.0 0.00 0.11 0.07 93 1012.1
20260509021004 50 58 0.0 0.0 0.00 0.11 0.07 93 1012.1
20260509020505 50 58 0.0 0.0 0.00 0.11 0.07 93 1012.1
20260509020004 50 58 0.0 0.0 0.00 0.11 0.07 93 1012.0
20260509015504 51 58 0.0 0.0 0.00 0.11 0.07 92 1011.8
20260509015003 51 58 0.0 0.0 0.00 0.11 0.07 92 1011.8
20260509014004 51 58 0.0 0.0 0.00 0.11 0.07 92 1011.8
20260509013504 51 58 0.0 0.0 0.00 0.11 0.07 92 1011.7
20260509013004 51 58 0.0 0.0 0.00 0.11 0.07 92 1011.6
20260509011504 51 58 0.0 0.0 0.00 0.11 0.07 91 1011.3
20260509010504 52 58 0.0 0.0 0.00 0.11 0.07 91 1011.3
20260509005503 52 58 0.0 0.0 0.00 0.11 0.07 91 1011.0
20260509005004 52 58 0.0 0.0 0.00 0.11 0.07 90 1011.1
20260509004004 52 58 0.0 0.0 0.00 0.11 0.07 90 1011.1
20260509003504 53 58 0.0 0.0 0.00 0.11 0.07 90 1011.1
20260509003004 53 58 0.0 0.0 0.00 0.11 0.07 90 1011.0
20260509002503 53 58 0.0 0.0 0.00 0.11 0.07 90 1011.0
20260509002004 53 58 0.0 0.0 0.00 0.11 0.07 90 1011.0
20260509001005 53 58 0.0 0.0 0.00 0.11 0.07 90 1010.9
20260509000504 54 58 0.0 0.0 0.00 0.11 0.07 90 1010.9
20260509000004 54 58 0.0 0.0 0.00 0.11 0.07 90 1010.9
20260508235504 54 58 0.0 2.0 0.00 0.11 0.07 90 1010.9
20260508234504 54 58 0.0 0.0 0.00 0.11 0.07 88 1010.9
20260508233504 54 58 0.0 1.0 0.00 0.11 0.07 88 1010.6
20260508233003 54 58 0.0 1.0 0.00 0.11 0.07 88 1010.6
20260508230504 54 220 0.0 0.0 0.02 0.11 0.07 87 1010.6
20260508225504 54 220 0.0 0.0 0.02 0.11 0.07 88 1010.5